iso_date,epoch_date,Year,Hour,Min,DOY,POS_DOY,Lat,Lon,BP,Ts,Ta,has_bp,has_ts,has_ta,BuoyID,Buoy_Type,Buoy_Owner,Logistics,Hemisphere
2019-10-05T03:28:56Z,1570246137,2019,3,29,278.1451,278.1451,85.00856,132.8933,-999.00,-1.14,-999.0,no,yes,no,300234065988570,GPS,TUT,MOSAiC,North
2019-10-05T03:29:57Z,1570246197,2019,3,30,278.1458,278.1458,85.0086,132.89267,-999.00,-1.02,-999.0,no,yes,no,300234065988570,GPS,TUT,MOSAiC,North
2019-10-05T04:30:00Z,1570249800,2019,4,30,278.1875,278.1875,85.0104,132.87593,-999.00,-0.44,-999.0,no,yes,no,300234065988570,GPS,TUT,MOSAiC,North
2019-10-05T05:30:02Z,1570253403,2019,5,30,278.2292,278.2292,85.01181,132.8607,-999.00,-0.18,-999.0,no,yes,no,300234065988570,GPS,TUT,MOSAiC,North
2019-10-05T06:29:57Z,1570256997,2019,6,30,278.2708,278.2708,85.01249,132.84669,-999.00,-0.04,-999.0,no,yes,no,300234065988570,GPS,TUT,MOSAiC,North
2019-10-05T07:30:00Z,1570260600,2019,7,30,278.3125,278.3125,85.01322,132.8318,-999.00,0.04,-999.0,no,yes,no,300234065988570,GPS,TUT,MOSAiC,North
2019-10-05T08:30:02Z,1570264203,2019,8,30,278.3542,278.3542,85.01393,132.81569,-999.00,-8.11,-999.0,no,yes,no,300234065988570,GPS,TUT,MOSAiC,North
2019-10-05T09:29:57Z,1570267797,2019,9,30,278.3958,278.3958,85.01463,132.79602,-999.00,0.08,-999.0,no,yes,no,300234065988570,GPS,TUT,MOSAiC,North
2019-10-05T10:30:00Z,1570271400,2019,10,30,278.4375,278.4375,85.01549,132.77742,-999.00,0.09,-999.0,no,yes,no,300234065988570,GPS,TUT,MOSAiC,North
2019-10-05T11:30:02Z,1570275003,2019,11,30,278.4792,278.4792,85.01675,132.76105,-999.00,0.14,-999.0,no,yes,no,300234065988570,GPS,TUT,MOSAiC,North
2019-10-05T12:29:57Z,1570278597,2019,12,30,278.5208,278.5208,85.01844,132.74775,-999.00,0.2,-999.0,no,yes,no,300234065988570,GPS,TUT,MOSAiC,North
2019-10-05T13:30:00Z,1570282200,2019,13,30,278.5625,278.5625,85.02042,132.73801,-999.00,0.27,-999.0,no,yes,no,300234065988570,GPS,TUT,MOSAiC,North
2019-10-05T14:30:02Z,1570285803,2019,14,30,278.6042,278.6042,85.0226,132.73144,-999.00,0.35,-999.0,no,yes,no,300234065988570,GPS,TUT,MOSAiC,North
2019-10-05T15:29:57Z,1570289397,2019,15,30,278.6458,278.6458,85.02477,132.73302,-999.00,0.41,-999.0,no,yes,no,300234065988570,GPS,TUT,MOSAiC,North
2019-10-05T16:30:00Z,1570293000,2019,16,30,278.6875,278.6875,85.02698,132.73757,-999.00,0.44,-999.0,no,yes,no,300234065988570,GPS,TUT,MOSAiC,North
2019-10-05T17:30:02Z,1570296603,2019,17,30,278.7292,278.7292,85.0285,132.7457,-999.00,0.49,-999.0,no,yes,no,300234065988570,GPS,TUT,MOSAiC,North
2019-10-05T18:29:57Z,1570300197,2019,18,30,278.7708,278.7708,85.02963,132.75346,-999.00,0.56,-999.0,no,yes,no,300234065988570,GPS,TUT,MOSAiC,North
2019-10-05T19:30:00Z,1570303800,2019,19,30,278.8125,278.8125,85.03034,132.76105,-999.00,-28.1,-999.0,no,yes,no,300234065988570,GPS,TUT,MOSAiC,North
2019-10-05T20:30:02Z,1570307403,2019,20,30,278.8542,278.8542,85.03059,132.76342,-999.00,0.59,-999.0,no,yes,no,300234065988570,GPS,TUT,MOSAiC,North
2019-10-05T21:29:57Z,1570310997,2019,21,30,278.8958,278.8958,85.03087,132.76266,-999.00,0.61,-999.0,no,yes,no,300234065988570,GPS,TUT,MOSAiC,North
2019-10-05T22:30:00Z,1570314600,2019,22,30,278.9375,278.9375,85.03075,132.76097,-999.00,0.64,-999.0,no,yes,no,300234065988570,GPS,TUT,MOSAiC,North
2019-10-05T23:30:02Z,1570318203,2019,23,30,278.9792,278.9792,85.03098,132.76334,-999.00,-7.43,-999.0,no,yes,no,300234065988570,GPS,TUT,MOSAiC,North
2019-10-06T00:29:57Z,1570321797,2019,0,30,279.0208,279.0208,85.03121,132.7678,-999.00,1.39,-999.0,no,yes,no,300234065988570,GPS,TUT,MOSAiC,North
2019-10-06T01:30:00Z,1570325400,2019,1,30,279.0625,279.0625,85.03139,132.77142,-999.00,1.57,-999.0,no,yes,no,300234065988570,GPS,TUT,MOSAiC,North
2019-10-06T02:30:02Z,1570329003,2019,2,30,279.1042,279.1042,85.0328,132.78083,-999.00,1.59,-999.0,no,yes,no,300234065988570,GPS,TUT,MOSAiC,North
2019-10-06T03:29:57Z,1570332597,2019,3,30,279.1458,279.1458,85.05334,133.07676,-999.00,1.36,-999.0,no,yes,no,300234065988570,GPS,TUT,MOSAiC,North
2019-10-06T04:30:00Z,1570336200,2019,4,30,279.1875,279.1875,85.03596,134.07692,-999.00,1.23,-999.0,no,yes,no,300234065988570,GPS,TUT,MOSAiC,North
2019-10-06T05:30:02Z,1570339803,2019,5,30,279.2292,279.2292,85.01871,134.63578,-999.00,4.35,-999.0,no,yes,no,300234065988570,GPS,TUT,MOSAiC,North
2019-10-06T06:29:57Z,1570343397,2019,6,30,279.2708,279.2708,85.01448,134.65521,-999.00,1.29,-999.0,no,yes,no,300234065988570,GPS,TUT,MOSAiC,North
2019-10-06T07:30:00Z,1570347000,2019,7,30,279.3125,279.3125,85.01369,134.65837,-999.00,1.11,-999.0,no,yes,no,300234065988570,GPS,TUT,MOSAiC,North
2019-10-06T08:30:02Z,1570350603,2019,8,30,279.3542,279.3542,85.0125,134.66182,-999.00,4.24,-999.0,no,yes,no,300234065988570,GPS,TUT,MOSAiC,North
2019-10-06T09:29:57Z,1570354197,2019,9,30,279.3958,279.3958,85.01137,134.66285,-999.00,0.98,-999.0,no,yes,no,300234065988570,GPS,TUT,MOSAiC,North
2019-10-06T10:30:00Z,1570357800,2019,10,30,279.4375,279.4375,85.01051,134.6646,-999.00,0.95,-999.0,no,yes,no,300234065988570,GPS,TUT,MOSAiC,North
2019-10-06T11:30:02Z,1570361403,2019,11,30,279.4792,279.4792,85.00995,134.67122,-999.00,0.93,-999.0,no,yes,no,300234065988570,GPS,TUT,MOSAiC,North
2019-10-06T12:29:57Z,1570364997,2019,12,30,279.5208,279.5208,85.0095,134.67853,-999.00,0.88,-999.0,no,yes,no,300234065988570,GPS,TUT,MOSAiC,North
2019-10-06T12:29:57Z,1570364997,2019,12,30,279.5208,279.5208,85.00951,134.67855,-999.00,0.89,-999.0,no,yes,no,300234065988570,GPS,TUT,MOSAiC,North
2019-10-06T14:30:02Z,1570372203,2019,14,30,279.6042,279.6042,85.00909,134.69902,-999.00,0.87,-999.0,no,yes,no,300234065988570,GPS,TUT,MOSAiC,North
2019-10-06T15:29:57Z,1570375797,2019,15,30,279.6458,279.6458,85.00899,134.71534,-999.00,0.86,-999.0,no,yes,no,300234065988570,GPS,TUT,MOSAiC,North
2019-10-06T16:30:00Z,1570379400,2019,16,30,279.6875,279.6875,85.00891,134.73458,-999.00,0.84,-999.0,no,yes,no,300234065988570,GPS,TUT,MOSAiC,North
2019-10-06T17:30:02Z,1570383003,2019,17,30,279.7292,279.7292,85.00859,134.75702,-999.00,0.84,-999.0,no,yes,no,300234065988570,GPS,TUT,MOSAiC,North
2019-10-06T18:29:57Z,1570386597,2019,18,30,279.7708,279.7708,85.00796,134.78139,-999.00,1.02,-999.0,no,yes,no,300234065988570,GPS,TUT,MOSAiC,North
2019-10-06T19:30:00Z,1570390200,2019,19,30,279.8125,279.8125,85.00695,134.81001,-999.00,0.89,-999.0,no,yes,no,300234065988570,GPS,TUT,MOSAiC,North
2019-10-06T20:30:02Z,1570393803,2019,20,30,279.8542,279.8542,85.00566,134.8412,-999.00,0.85,-999.0,no,yes,no,300234065988570,GPS,TUT,MOSAiC,North
2019-10-06T21:29:57Z,1570397397,2019,21,30,279.8958,279.8958,85.00385,134.86659,-999.00,0.82,-999.0,no,yes,no,300234065988570,GPS,TUT,MOSAiC,North
2019-10-06T22:30:00Z,1570401000,2019,22,30,279.9375,279.9375,85.00234,134.88892,-999.00,0.81,-999.0,no,yes,no,300234065988570,GPS,TUT,MOSAiC,North
2019-10-06T23:30:02Z,1570404603,2019,23,30,279.9792,279.9792,85.0008,134.90185,-999.00,0.85,-999.0,no,yes,no,300234065988570,GPS,TUT,MOSAiC,North
2019-10-07T00:29:57Z,1570408197,2019,0,30,280.0208,280.0208,84.99928,134.93192,-999.00,1.41,-999.0,no,yes,no,300234065988570,GPS,TUT,MOSAiC,North
2019-10-07T01:00:02Z,1570410003,2019,1,0,280.0417,280.0417,85.14617,131.84115,-999.00,-7.37,-999.0,no,yes,no,300234065988570,GPS,TUT,MOSAiC,North
2019-10-07T01:30:00Z,1570411800,2019,1,30,280.0625,280.0625,84.99812,134.95837,-999.00,1.29,-999.0,no,yes,no,300234065988570,GPS,TUT,MOSAiC,North
2019-10-07T02:30:02Z,1570415403,2019,2,30,280.1042,280.1042,84.99724,134.98936,-999.00,1.05,-999.0,no,yes,no,300234065988570,GPS,TUT,MOSAiC,North
2019-10-07T03:29:57Z,1570418997,2019,3,30,280.1458,280.1458,84.99631,135.02377,-999.00,0.93,-999.0,no,yes,no,300234065988570,GPS,TUT,MOSAiC,North
2019-10-07T04:30:00Z,1570422600,2019,4,30,280.1875,280.1875,84.99505,135.05999,-999.00,0.86,-999.0,no,yes,no,300234065988570,GPS,TUT,MOSAiC,North
2019-10-07T05:30:02Z,1570426203,2019,5,30,280.2292,280.2292,84.99338,135.09802,-999.00,0.82,-999.0,no,yes,no,300234065988570,GPS,TUT,MOSAiC,North
2019-10-07T06:29:57Z,1570429797,2019,6,30,280.2708,280.2708,84.99167,135.13591,-999.00,0.88,-999.0,no,yes,no,300234065988570,GPS,TUT,MOSAiC,North
2019-10-07T08:32:03Z,1570437124,2019,8,32,280.3556,280.3556,85.17813,133.6635,-999.00,2.26,-999.0,no,yes,no,300234065988570,GPS,TUT,MOSAiC,North
2019-10-07T09:29:57Z,1570440597,2019,9,30,280.3958,280.3958,85.16045,131.51133,-999.00,2.25,-999.0,no,yes,no,300234065988570,GPS,TUT,MOSAiC,North
2019-10-07T10:30:00Z,1570444200,2019,10,30,280.4375,280.4375,85.15816,131.55014,-999.00,1.69,-999.0,no,yes,no,300234065988570,GPS,TUT,MOSAiC,North
2019-10-07T11:30:02Z,1570447803,2019,11,30,280.4792,280.4792,85.15604,131.59231,-999.00,1.35,-999.0,no,yes,no,300234065988570,GPS,TUT,MOSAiC,North
2019-10-07T12:29:57Z,1570451397,2019,12,30,280.5208,280.5208,85.15604,131.59232,-999.00,-27.51,-999.0,no,yes,no,300234065988570,GPS,TUT,MOSAiC,North
2019-10-07T13:30:00Z,1570455000,2019,13,30,280.5625,280.5625,85.15171,131.70351,-999.00,1.02,-999.0,no,yes,no,300234065988570,GPS,TUT,MOSAiC,North
2019-10-07T14:30:02Z,1570458603,2019,14,30,280.6042,280.6042,85.15171,131.70353,-999.00,0.94,-999.0,no,yes,no,300234065988570,GPS,TUT,MOSAiC,North
2019-10-07T15:29:57Z,1570462197,2019,15,30,280.6458,280.6458,85.14617,131.84115,-999.00,0.87,-999.0,no,yes,no,300234065988570,GPS,TUT,MOSAiC,North
2019-10-07T16:00:02Z,1570464003,2019,16,0,280.6667,280.6667,85.14136,131.94732,-999.00,0.79,-999.0,no,yes,no,300234065988570,GPS,TUT,MOSAiC,North
2019-10-07T17:30:02Z,1570469403,2019,17,30,280.7292,280.7292,85.13974,131.98092,-999.00,0.79,-999.0,no,yes,no,300234065988570,GPS,TUT,MOSAiC,North
2019-10-07T18:29:57Z,1570472997,2019,18,30,280.7708,280.7708,85.13631,132.04975,-999.00,0.74,-999.0,no,yes,no,300234065988570,GPS,TUT,MOSAiC,North
2019-10-07T19:30:00Z,1570476600,2019,19,30,280.8125,280.8125,85.13631,132.04979,-999.00,-27.95,-999.0,no,yes,no,300234065988570,GPS,TUT,MOSAiC,North
2019-10-07T20:30:02Z,1570480203,2019,20,30,280.8542,280.8542,85.12947,132.18555,-999.00,0.69,-999.0,no,yes,no,300234065988570,GPS,TUT,MOSAiC,North
2019-10-07T21:29:57Z,1570483797,2019,21,30,280.8958,280.8958,85.12947,132.18555,-999.00,-27.98,-999.0,no,yes,no,300234065988570,GPS,TUT,MOSAiC,North
2019-10-07T22:30:00Z,1570487400,2019,22,30,280.9375,280.9375,85.12298,132.34548,-999.00,0.69,-999.0,no,yes,no,300234065988570,GPS,TUT,MOSAiC,North
2019-10-08T00:29:57Z,1570494597,2019,0,30,281.0208,281.0208,85.11478,132.55933,-999.00,0.76,-999.0,no,yes,no,300234065988570,GPS,TUT,MOSAiC,North
2019-10-08T01:30:00Z,1570498200,2019,1,30,281.0625,281.0625,85.10645,132.78688,-999.00,0.82,-999.0,no,yes,no,300234065988570,GPS,TUT,MOSAiC,North
2019-10-08T02:30:02Z,1570501803,2019,2,30,281.1042,281.1042,85.10645,132.78693,-999.00,0.88,-999.0,no,yes,no,300234065988570,GPS,TUT,MOSAiC,North
2019-10-08T03:29:57Z,1570505397,2019,3,30,281.1458,281.1458,85.09666,132.9994,-999.00,0.89,-999.0,no,yes,no,300234065988570,GPS,TUT,MOSAiC,North
2019-10-08T04:30:00Z,1570509000,2019,4,30,281.1875,281.1875,85.09666,132.99942,-999.00,0.91,-999.0,no,yes,no,300234065988570,GPS,TUT,MOSAiC,North
2019-10-08T05:30:02Z,1570512603,2019,5,30,281.2292,281.2292,85.08554,133.18606,-999.00,0.93,-999.0,no,yes,no,300234065988570,GPS,TUT,MOSAiC,North
2019-10-08T06:29:57Z,1570516197,2019,6,30,281.2708,281.2708,85.08554,133.18609,-999.00,0.95,-999.0,no,yes,no,300234065988570,GPS,TUT,MOSAiC,North
2019-10-08T07:30:00Z,1570519800,2019,7,30,281.3125,281.3125,85.07306,133.32767,-999.00,0.97,-999.0,no,yes,no,300234065988570,GPS,TUT,MOSAiC,North
2019-10-08T08:30:02Z,1570523403,2019,8,30,281.3542,281.3542,85.07305,133.32771,-999.00,0.99,-999.0,no,yes,no,300234065988570,GPS,TUT,MOSAiC,North
2019-10-08T09:29:57Z,1570526997,2019,9,30,281.3958,281.3958,85.05943,133.408,-999.00,1.01,-999.0,no,yes,no,300234065988570,GPS,TUT,MOSAiC,North
2019-10-08T10:30:00Z,1570530600,2019,10,30,281.4375,281.4375,85.05943,133.40801,-999.00,1.03,-999.0,no,yes,no,300234065988570,GPS,TUT,MOSAiC,North
2019-10-08T11:30:02Z,1570534203,2019,11,30,281.4792,281.4792,85.05943,133.40801,-999.00,1.02,-999.0,no,yes,no,300234065988570,GPS,TUT,MOSAiC,North
2019-10-08T12:28:56Z,1570537737,2019,12,29,281.5201,281.5201,85.03932,133.42092,-999.00,1.05,-999.0,no,yes,no,300234065988570,GPS,TUT,MOSAiC,North
2019-10-08T13:30:00Z,1570541400,2019,13,30,281.5625,281.5625,85.03926,133.42083,-999.00,1.0,-999.0,no,yes,no,300234065988570,GPS,TUT,MOSAiC,North
2019-10-08T23:30:02Z,1570577403,2019,23,30,281.9792,281.9792,85.11479,132.55928,-999.00,0.71,-999.0,no,yes,no,300234065988570,GPS,TUT,MOSAiC,North
2019-10-09T00:00:00Z,1570579200,2019,0,0,282.0,282.0,84.99117,133.29384,-999.00,0.84,-999.0,no,yes,no,300234065988570,GPS,TUT,MOSAiC,North
2019-10-09T01:30:00Z,1570584600,2019,1,30,282.0625,282.0625,84.99117,133.29384,-999.00,0.85,-999.0,no,yes,no,300234065988570,GPS,TUT,MOSAiC,North
2019-10-09T01:59:57Z,1570586397,2019,2,0,282.0833,282.0833,84.98837,133.24937,-999.00,0.82,-999.0,no,yes,no,300234065988570,GPS,TUT,MOSAiC,North
2019-10-09T03:29:57Z,1570591797,2019,3,30,282.1458,282.1458,84.98794,133.2361,-999.00,0.81,-999.0,no,yes,no,300234065988570,GPS,TUT,MOSAiC,North
2019-10-09T04:30:00Z,1570595400,2019,4,30,282.1875,282.1875,84.98744,133.21472,-999.00,0.78,-999.0,no,yes,no,300234065988570,GPS,TUT,MOSAiC,North
2019-10-09T05:30:02Z,1570599003,2019,5,30,282.2292,282.2292,84.98691,133.19976,-999.00,0.74,-999.0,no,yes,no,300234065988570,GPS,TUT,MOSAiC,North
2019-10-09T06:29:57Z,1570602597,2019,6,30,282.2708,282.2708,84.98691,133.19976,-999.00,-27.97,-999.0,no,yes,no,300234065988570,GPS,TUT,MOSAiC,North
2019-10-09T07:30:00Z,1570606200,2019,7,30,282.3125,282.3125,84.9862,133.18383,-999.00,0.65,-999.0,no,yes,no,300234065988570,GPS,TUT,MOSAiC,North
2019-10-09T08:30:02Z,1570609803,2019,8,30,282.3542,282.3542,84.9862,133.18383,-999.00,0.62,-999.0,no,yes,no,300234065988570,GPS,TUT,MOSAiC,North
2019-10-09T09:29:57Z,1570613397,2019,9,30,282.3958,282.3958,84.98428,133.17112,-999.00,0.61,-999.0,no,yes,no,300234065988570,GPS,TUT,MOSAiC,North
2019-10-09T10:30:00Z,1570617000,2019,10,30,282.4375,282.4375,84.98428,133.17112,-999.00,0.62,-999.0,no,yes,no,300234065988570,GPS,TUT,MOSAiC,North
2019-10-09T11:30:02Z,1570620603,2019,11,30,282.4792,282.4792,84.98138,133.14313,-999.00,0.61,-999.0,no,yes,no,300234065988570,GPS,TUT,MOSAiC,North
2019-10-09T12:29:57Z,1570624197,2019,12,30,282.5208,282.5208,84.98038,133.12581,-999.00,0.61,-999.0,no,yes,no,300234065988570,GPS,TUT,MOSAiC,North
2019-10-09T13:30:00Z,1570627800,2019,13,30,282.5625,282.5625,84.98038,133.12581,-999.00,-28.05,-999.0,no,yes,no,300234065988570,GPS,TUT,MOSAiC,North
2019-10-09T23:30:02Z,1570663803,2019,23,30,282.9792,282.9792,84.99385,133.32374,-999.00,0.85,-999.0,no,yes,no,300234065988570,GPS,TUT,MOSAiC,North
2019-10-09T23:30:02Z,1570663803,2019,23,30,282.9792,282.9792,84.98442,132.93362,-999.00,0.54,-999.0,no,yes,no,300234065988570,GPS,TUT,MOSAiC,North
2019-10-10T00:29:57Z,1570667397,2019,0,30,283.0208,283.0208,84.98456,132.88873,-999.00,0.49,-999.0,no,yes,no,300234065988570,GPS,TUT,MOSAiC,North
2019-10-10T00:29:57Z,1570667397,2019,0,30,283.0208,283.0208,84.98457,132.88874,-999.00,0.51,-999.0,no,yes,no,300234065988570,GPS,TUT,MOSAiC,North
2019-10-10T01:00:02Z,1570669203,2019,1,0,283.0417,283.0417,84.9887,132.63364,-999.00,-28.06,-999.0,no,yes,no,300234065988570,GPS,TUT,MOSAiC,North
2019-10-10T02:30:02Z,1570674603,2019,2,30,283.1042,283.1042,84.98548,132.78729,-999.00,-28.14,-999.0,no,yes,no,300234065988570,GPS,TUT,MOSAiC,North
2019-10-10T02:30:02Z,1570674603,2019,2,30,283.1042,283.1042,84.98548,132.78732,-999.00,0.5,-999.0,no,yes,no,300234065988570,GPS,TUT,MOSAiC,North
2019-10-10T04:30:00Z,1570681800,2019,4,30,283.1875,283.1875,84.98735,132.68068,-999.00,0.57,-999.0,no,yes,no,300234065988570,GPS,TUT,MOSAiC,North
2019-10-10T05:30:02Z,1570685403,2019,5,30,283.2292,283.2292,84.9887,132.63364,-999.00,0.59,-999.0,no,yes,no,300234065988570,GPS,TUT,MOSAiC,North
2019-10-10T07:00:02Z,1570690803,2019,7,0,283.2917,283.2917,84.98979,132.57681,-999.00,0.61,-999.0,no,yes,no,300234065988570,GPS,TUT,MOSAiC,North
2019-10-10T07:30:00Z,1570692600,2019,7,30,283.3125,283.3125,84.98989,132.5604,-999.00,0.61,-999.0,no,yes,no,300234065988570,GPS,TUT,MOSAiC,North
2019-10-10T08:30:02Z,1570696203,2019,8,30,283.3542,283.3542,84.98959,132.53225,-999.00,0.59,-999.0,no,yes,no,300234065988570,GPS,TUT,MOSAiC,North
2019-10-10T09:29:57Z,1570699797,2019,9,30,283.3958,283.3958,84.98877,132.50867,-999.00,0.57,-999.0,no,yes,no,300234065988570,GPS,TUT,MOSAiC,North
2019-10-10T09:29:57Z,1570699797,2019,9,30,283.3958,283.3958,84.98877,132.50868,-999.00,0.59,-999.0,no,yes,no,300234065988570,GPS,TUT,MOSAiC,North
2019-10-10T11:30:02Z,1570707003,2019,11,30,283.4792,283.4792,84.98614,132.46048,-999.00,0.59,-999.0,no,yes,no,300234065988570,GPS,TUT,MOSAiC,North
2019-10-10T11:30:02Z,1570707003,2019,11,30,283.4792,283.4792,84.98614,132.46048,-999.00,0.58,-999.0,no,yes,no,300234065988570,GPS,TUT,MOSAiC,North
2019-10-10T13:30:00Z,1570714200,2019,13,30,283.5625,283.5625,84.98314,132.40956,-999.00,0.59,-999.0,no,yes,no,300234065988570,GPS,TUT,MOSAiC,North
2019-10-11T02:30:02Z,1570761003,2019,2,30,284.1042,284.1042,84.95208,132.69251,-999.00,0.32,-999.0,no,yes,no,300234065988570,GPS,TUT,MOSAiC,North
2019-10-11T03:29:57Z,1570764597,2019,3,30,284.1458,284.1458,84.94451,132.72321,-999.00,0.36,-999.0,no,yes,no,300234065988570,GPS,TUT,MOSAiC,North
2019-10-11T04:30:00Z,1570768200,2019,4,30,284.1875,284.1875,84.94451,132.72321,-999.00,0.29,-999.0,no,yes,no,300234065988570,GPS,TUT,MOSAiC,North
2019-10-11T05:30:02Z,1570771803,2019,5,30,284.2292,284.2292,84.93875,132.76809,-999.00,1.89,-999.0,no,yes,no,300234065988570,GPS,TUT,MOSAiC,North
2019-10-11T06:29:57Z,1570775397,2019,6,30,284.2708,284.2708,84.93875,132.7681,-999.00,0.3,-999.0,no,yes,no,300234065988570,GPS,TUT,MOSAiC,North
2019-10-11T07:30:00Z,1570779000,2019,7,30,284.3125,284.3125,84.9308,132.84141,-999.00,0.31,-999.0,no,yes,no,300234065988570,GPS,TUT,MOSAiC,North
2019-10-11T08:30:02Z,1570782603,2019,8,30,284.3542,284.3542,84.9308,132.84141,-999.00,0.31,-999.0,no,yes,no,300234065988570,GPS,TUT,MOSAiC,North
2019-10-11T09:29:57Z,1570786197,2019,9,30,284.3958,284.3958,84.92106,132.88626,-999.00,0.33,-999.0,no,yes,no,300234065988570,GPS,TUT,MOSAiC,North
2019-10-11T10:30:00Z,1570789800,2019,10,30,284.4375,284.4375,84.92106,132.88626,-999.00,0.34,-999.0,no,yes,no,300234065988570,GPS,TUT,MOSAiC,North
2019-10-11T11:30:02Z,1570793403,2019,11,30,284.4792,284.4792,84.91313,132.8992,-999.00,0.36,-999.0,no,yes,no,300234065988570,GPS,TUT,MOSAiC,North
2019-10-11T12:29:57Z,1570796997,2019,12,30,284.5208,284.5208,84.91009,132.90308,-999.00,0.39,-999.0,no,yes,no,300234065988570,GPS,TUT,MOSAiC,North
2019-10-11T13:30:00Z,1570800600,2019,13,30,284.5625,284.5625,84.91009,132.90308,-999.00,0.41,-999.0,no,yes,no,300234065988570,GPS,TUT,MOSAiC,North
2019-10-12T02:30:02Z,1570847403,2019,2,30,285.1042,285.1042,84.91043,133.06246,-999.00,0.56,-999.0,no,yes,no,300234065988570,GPS,TUT,MOSAiC,North
2019-10-12T03:00:00Z,1570849200,2019,3,0,285.125,285.125,84.91622,133.0602,-999.00,-7.61,-999.0,no,yes,no,300234065988570,GPS,TUT,MOSAiC,North
2019-10-12T04:30:00Z,1570854600,2019,4,30,285.1875,285.1875,84.91802,133.05978,-999.00,0.59,-999.0,no,yes,no,300234065988570,GPS,TUT,MOSAiC,North
2019-10-12T05:30:02Z,1570858203,2019,5,30,285.2292,285.2292,84.92125,133.05627,-999.00,0.59,-999.0,no,yes,no,300234065988570,GPS,TUT,MOSAiC,North
2019-10-12T06:29:57Z,1570861797,2019,6,30,285.2708,285.2708,84.9238,133.04817,-999.00,0.6,-999.0,no,yes,no,300234065988570,GPS,TUT,MOSAiC,North
2019-10-12T07:30:00Z,1570865400,2019,7,30,285.3125,285.3125,84.92563,133.03519,-999.00,0.61,-999.0,no,yes,no,300234065988570,GPS,TUT,MOSAiC,North
2019-10-12T08:30:02Z,1570869003,2019,8,30,285.3542,285.3542,84.92676,133.01426,-999.00,0.62,-999.0,no,yes,no,300234065988570,GPS,TUT,MOSAiC,North
2019-10-12T09:29:57Z,1570872597,2019,9,30,285.3958,285.3958,84.92676,133.01426,-999.00,-28.07,-999.0,no,yes,no,300234065988570,GPS,TUT,MOSAiC,North
2019-10-12T10:30:00Z,1570876200,2019,10,30,285.4375,285.4375,84.92805,132.94532,-999.00,0.56,-999.0,no,yes,no,300234065988570,GPS,TUT,MOSAiC,North
2019-10-12T11:30:02Z,1570879803,2019,11,30,285.4792,285.4792,84.92805,132.94531,-999.00,-28.14,-999.0,no,yes,no,300234065988570,GPS,TUT,MOSAiC,North
2019-10-12T12:29:57Z,1570883397,2019,12,30,285.5208,285.5208,84.92976,132.84332,-999.00,0.48,-999.0,no,yes,no,300234065988570,GPS,TUT,MOSAiC,North
2019-10-12T13:30:00Z,1570887000,2019,13,30,285.5625,285.5625,84.92976,132.84329,-999.00,0.45,-999.0,no,yes,no,300234065988570,GPS,TUT,MOSAiC,North
2019-10-13T02:30:02Z,1570933803,2019,2,30,286.1042,286.1042,84.92968,132.39186,-999.00,0.32,-999.0,no,yes,no,300234065988570,GPS,TUT,MOSAiC,North
2019-10-13T03:29:57Z,1570937397,2019,3,30,286.1458,286.1458,84.92945,132.30188,-999.00,0.27,-999.0,no,yes,no,300234065988570,GPS,TUT,MOSAiC,North
2019-10-13T04:30:00Z,1570941000,2019,4,30,286.1875,286.1875,84.92945,132.30186,-999.00,0.19,-999.0,no,yes,no,300234065988570,GPS,TUT,MOSAiC,North
2019-10-13T05:30:02Z,1570944603,2019,5,30,286.2292,286.2292,84.92812,132.24024,-999.00,0.14,-999.0,no,yes,no,300234065988570,GPS,TUT,MOSAiC,North
2019-10-13T06:00:00Z,1570946400,2019,6,0,286.25,286.25,84.92602,132.20353,-999.00,0.11,-999.0,no,yes,no,300234065988570,GPS,TUT,MOSAiC,North
2019-10-13T07:30:00Z,1570951800,2019,7,30,286.3125,286.3125,84.9252,132.19128,-999.00,0.11,-999.0,no,yes,no,300234065988570,GPS,TUT,MOSAiC,North
2019-10-13T08:30:02Z,1570955403,2019,8,30,286.3542,286.3542,84.92333,132.16444,-999.00,0.06,-999.0,no,yes,no,300234065988570,GPS,TUT,MOSAiC,North
2019-10-13T09:29:57Z,1570958997,2019,9,30,286.3958,286.3958,84.92131,132.13563,-999.00,-8.16,-999.0,no,yes,no,300234065988570,GPS,TUT,MOSAiC,North
2019-10-13T10:30:00Z,1570962600,2019,10,30,286.4375,286.4375,84.91919,132.10387,-999.00,-0.01,-999.0,no,yes,no,300234065988570,GPS,TUT,MOSAiC,North
2019-10-13T11:30:02Z,1570966203,2019,11,30,286.4792,286.4792,84.91919,132.10387,-999.00,-0.05,-999.0,no,yes,no,300234065988570,GPS,TUT,MOSAiC,North
2019-10-13T12:29:57Z,1570969797,2019,12,30,286.5208,286.5208,84.91535,132.04433,-999.00,-0.08,-999.0,no,yes,no,300234065988570,GPS,TUT,MOSAiC,North
2019-10-14T02:30:02Z,1571020203,2019,2,30,287.1042,287.1042,84.86487,131.81645,-999.00,-999.00,-999.0,no,yes,no,300234065988570,GPS,TUT,MOSAiC,North
2019-10-14T03:29:57Z,1571023797,2019,3,30,287.1458,287.1458,84.86486,131.81642,-999.00,-999.00,-999.0,no,yes,no,300234065988570,GPS,TUT,MOSAiC,North
2019-10-14T04:30:00Z,1571027400,2019,4,30,287.1875,287.1875,84.85751,131.7547,-999.00,-999.00,-999.0,no,yes,no,300234065988570,GPS,TUT,MOSAiC,North
2019-10-14T05:30:02Z,1571031003,2019,5,30,287.2292,287.2292,84.85751,131.67137,-999.00,-999.00,-999.0,no,yes,no,300234065988570,GPS,TUT,MOSAiC,North
2019-10-14T06:29:57Z,1571034597,2019,6,30,287.2708,287.2708,84.85112,131.71204,-999.00,-999.00,-999.0,no,yes,no,300234065988570,GPS,TUT,MOSAiC,North
2019-10-14T07:30:00Z,1571038200,2019,7,30,287.3125,287.3125,84.84508,131.68472,-999.00,-999.00,-999.0,no,yes,no,300234065988570,GPS,TUT,MOSAiC,North
2019-10-14T08:30:02Z,1571041803,2019,8,30,287.3542,287.3542,84.84175,131.67375,-999.00,-999.00,-999.0,no,yes,no,300234065988570,GPS,TUT,MOSAiC,North
2019-10-14T09:29:57Z,1571045397,2019,9,30,287.3958,287.3958,84.84175,131.67375,-999.00,-999.00,-999.0,no,yes,no,300234065988570,GPS,TUT,MOSAiC,North
2019-10-14T10:30:00Z,1571049000,2019,10,30,287.4375,287.4375,84.83484,131.6438,-999.00,-999.00,-999.0,no,yes,no,300234065988570,GPS,TUT,MOSAiC,North
2019-10-14T11:30:02Z,1571052603,2019,11,30,287.4792,287.4792,84.83484,131.6438,-999.00,-999.00,-999.0,no,yes,no,300234065988570,GPS,TUT,MOSAiC,North
2019-10-14T12:29:57Z,1571056197,2019,12,30,287.5208,287.5208,84.82969,131.59419,-999.00,-999.00,-999.0,no,yes,no,300234065988570,GPS,TUT,MOSAiC,North
2019-10-14T13:30:00Z,1571059800,2019,13,30,287.5625,287.5625,84.82812,131.56805,-999.00,-999.00,-999.0,no,yes,no,300234065988570,GPS,TUT,MOSAiC,North